![]() |
EMODnet Physics ERDDAP
Easier access to scientific data |
log in|
Brought to you by EMODnet Physics |
| Dataset Title: | NDBC - Collection of dew point temperature (DEWT) TimeSeries - IN SITU MultiPointTimeSeriesObservation
|
| Institution: | NDBC (Dataset ID: TS_DEWT_NDBC) |
| Information: | Summary
| License
| FGDC
| ISO 19115
| Metadata
| Background
| Subset
| Data Access Form
| Make a graph
|
| Name | Last modified | Size | Description | |
|---|---|---|---|---|
| Parent Directory | - | - | ||
| YGNN6_TS_DEWT_012008.nc | 28-Oct-2024 02:41 | 587112 | ||
| YGNN6_TS_DEWT_012009.nc | 28-Oct-2024 02:41 | 431153 | ||
| YGNN6_TS_DEWT_012010.nc | 28-Oct-2024 02:41 | 587298 | ||
| YGNN6_TS_DEWT_012011.nc | 28-Oct-2024 02:41 | 587310 | ||
| YGNN6_TS_DEWT_012012.nc | 28-Oct-2024 02:41 | 429064 | ||
| YGNN6_TS_DEWT_012013.nc | 28-Oct-2024 02:41 | 429160 | ||
| YGNN6_TS_DEWT_012014.nc | 28-Oct-2024 02:41 | 423884 | ||
| YGNN6_TS_DEWT_012015.nc | 28-Oct-2024 02:41 | 440172 | ||
| YGNN6_TS_DEWT_012016.nc | 28-Oct-2024 02:42 | 586964 | ||
| YGNN6_TS_DEWT_012017.nc | 28-Oct-2024 02:42 | 587247 | ||
| YGNN6_TS_DEWT_012018.nc | 28-Oct-2024 02:42 | 439973 | ||
| YGNN6_TS_DEWT_012019.nc | 28-Oct-2024 02:42 | 424383 | ||
| YGNN6_TS_DEWT_012024.nc | 28-Oct-2024 02:42 | 587158 | ||
| YGNN6_TS_DEWT_022008.nc | 28-Oct-2024 02:42 | 587064 | ||
| YGNN6_TS_DEWT_022009.nc | 28-Oct-2024 02:42 | 586890 | ||
| YGNN6_TS_DEWT_022010.nc | 28-Oct-2024 02:42 | 440228 | ||
| YGNN6_TS_DEWT_022011.nc | 28-Oct-2024 02:42 | 439024 | ||
| YGNN6_TS_DEWT_022012.nc | 28-Oct-2024 02:42 | 432881 | ||
| YGNN6_TS_DEWT_022013.nc | 28-Oct-2024 02:42 | 587098 | ||
| YGNN6_TS_DEWT_022014.nc | 28-Oct-2024 02:42 | 587177 | ||
| YGNN6_TS_DEWT_022015.nc | 28-Oct-2024 02:42 | 587300 | ||
| YGNN6_TS_DEWT_022016.nc | 28-Oct-2024 02:42 | 587285 | ||
| YGNN6_TS_DEWT_022017.nc | 28-Oct-2024 02:42 | 426669 | ||
| YGNN6_TS_DEWT_022018.nc | 28-Oct-2024 02:42 | 426182 | ||
| YGNN6_TS_DEWT_022019.nc | 28-Oct-2024 02:42 | 429555 | ||
| YGNN6_TS_DEWT_022023.nc | 28-Oct-2024 02:42 | 429522 | ||
| YGNN6_TS_DEWT_022024.nc | 16-Sep-2024 16:51 | 439739 | ||
| YGNN6_TS_DEWT_032008.nc | 28-Oct-2024 02:43 | 428717 | ||
| YGNN6_TS_DEWT_032009.nc | 28-Oct-2024 02:43 | 440178 | ||
| YGNN6_TS_DEWT_032010.nc | 28-Oct-2024 02:43 | 439478 | ||
| YGNN6_TS_DEWT_032011.nc | 28-Oct-2024 02:43 | 439188 | ||
| YGNN6_TS_DEWT_032012.nc | 28-Oct-2024 02:43 | 430903 | ||
| YGNN6_TS_DEWT_032013.nc | 28-Oct-2024 02:43 | 440032 | ||
| YGNN6_TS_DEWT_032014.nc | 28-Oct-2024 02:43 | 440023 | ||
| YGNN6_TS_DEWT_032015.nc | 28-Oct-2024 02:43 | 439873 | ||
| YGNN6_TS_DEWT_032016.nc | 28-Oct-2024 02:43 | 439928 | ||
| YGNN6_TS_DEWT_032017.nc | 28-Oct-2024 02:43 | 430315 | ||
| YGNN6_TS_DEWT_032018.nc | 28-Oct-2024 02:43 | 440199 | ||
| YGNN6_TS_DEWT_032019.nc | 28-Oct-2024 02:43 | 440116 | ||
| YGNN6_TS_DEWT_032023.nc | 28-Oct-2024 02:43 | 440211 | ||
| YGNN6_TS_DEWT_042008.nc | 28-Oct-2024 02:43 | 440303 | ||
| YGNN6_TS_DEWT_042009.nc | 28-Oct-2024 02:43 | 429643 | ||
| YGNN6_TS_DEWT_042010.nc | 28-Oct-2024 02:44 | 429576 | ||
| YGNN6_TS_DEWT_042011.nc | 28-Oct-2024 02:44 | 429676 | ||
| YGNN6_TS_DEWT_042012.nc | 28-Oct-2024 02:44 | 429913 | ||
| YGNN6_TS_DEWT_042013.nc | 28-Oct-2024 02:44 | 587530 | ||
| YGNN6_TS_DEWT_042014.nc | 28-Oct-2024 02:44 | 587013 | ||
| YGNN6_TS_DEWT_042015.nc | 28-Oct-2024 02:44 | 587297 | ||
| YGNN6_TS_DEWT_042016.nc | 28-Oct-2024 02:44 | 439172 | ||
| YGNN6_TS_DEWT_042017.nc | 28-Oct-2024 02:44 | 440288 | ||
| YGNN6_TS_DEWT_042018.nc | 28-Oct-2024 02:44 | 587158 | ||
| YGNN6_TS_DEWT_042023.nc | 28-Oct-2024 02:44 | 587137 | ||
| YGNN6_TS_DEWT_052008.nc | 28-Oct-2024 02:44 | 587104 | ||
| YGNN6_TS_DEWT_052009.nc | 28-Oct-2024 02:44 | 440221 | ||
| YGNN6_TS_DEWT_052010.nc | 28-Oct-2024 02:44 | 587232 | ||
| YGNN6_TS_DEWT_052011.nc | 28-Oct-2024 02:44 | 587271 | ||
| YGNN6_TS_DEWT_052013.nc | 28-Oct-2024 02:44 | 587324 | ||
| YGNN6_TS_DEWT_052014.nc | 28-Oct-2024 02:44 | 587475 | ||
| YGNN6_TS_DEWT_052015.nc | 28-Oct-2024 02:44 | 429400 | ||
| YGNN6_TS_DEWT_052016.nc | 28-Oct-2024 02:45 | 429494 | ||
| YGNN6_TS_DEWT_052017.nc | 28-Oct-2024 02:45 | 429534 | ||
| YGNN6_TS_DEWT_052018.nc | 28-Oct-2024 02:45 | 429225 | ||
| YGNN6_TS_DEWT_052023.nc | 28-Oct-2024 02:45 | 425646 | ||
| YGNN6_TS_DEWT_062008.nc | 28-Oct-2024 02:45 | 440010 | ||
| YGNN6_TS_DEWT_062009.nc | 28-Oct-2024 02:45 | 435335 | ||
| YGNN6_TS_DEWT_062010.nc | 28-Oct-2024 02:45 | 439662 | ||
| YGNN6_TS_DEWT_062011.nc | 28-Oct-2024 02:45 | 439941 | ||
| YGNN6_TS_DEWT_062012.nc | 28-Oct-2024 02:45 | 427324 | ||
| YGNN6_TS_DEWT_062013.nc | 28-Oct-2024 02:45 | 439959 | ||
| YGNN6_TS_DEWT_062014.nc | 28-Oct-2024 02:45 | 440056 | ||
| YGNN6_TS_DEWT_062015.nc | 28-Oct-2024 02:45 | 439584 | ||
| YGNN6_TS_DEWT_062016.nc | 28-Oct-2024 02:45 | 439907 | ||
| YGNN6_TS_DEWT_062017.nc | 28-Oct-2024 02:45 | 440080 | ||
| YGNN6_TS_DEWT_062018.nc | 28-Oct-2024 02:45 | 440201 | ||
| YGNN6_TS_DEWT_062019.nc | 28-Oct-2024 02:46 | 439061 | ||
| YGNN6_TS_DEWT_062023.nc | 28-Oct-2024 02:46 | 440247 | ||
| YGNN6_TS_DEWT_072009.nc | 28-Oct-2024 02:46 | 429814 | ||
| YGNN6_TS_DEWT_072010.nc | 28-Oct-2024 02:46 | 429703 | ||
| YGNN6_TS_DEWT_072011.nc | 28-Oct-2024 02:46 | 429916 | ||
| YGNN6_TS_DEWT_072012.nc | 28-Oct-2024 02:46 | 429911 | ||
| YGNN6_TS_DEWT_072013.nc | 28-Oct-2024 02:46 | 438774 | ||
| YGNN6_TS_DEWT_072014.nc | 28-Oct-2024 02:46 | 439966 | ||
| YGNN6_TS_DEWT_072015.nc | 28-Oct-2024 02:46 | 587181 | ||
| YGNN6_TS_DEWT_072016.nc | 28-Oct-2024 02:46 | 587142 | ||
| YGNN6_TS_DEWT_072017.nc | 28-Oct-2024 02:46 | 440212 | ||
| YGNN6_TS_DEWT_072018.nc | 28-Oct-2024 02:46 | 587198 | ||
| YGNN6_TS_DEWT_072019.nc | 28-Oct-2024 02:46 | 586987 | ||
| YGNN6_TS_DEWT_072022.nc | 28-Oct-2024 02:46 | 587064 | ||
| YGNN6_TS_DEWT_072023.nc | 28-Oct-2024 02:46 | 587063 | ||
| YGNN6_TS_DEWT_082007.nc | 28-Oct-2024 02:47 | 586810 | ||
| YGNN6_TS_DEWT_082008.nc | 28-Oct-2024 02:47 | 587256 | ||
| YGNN6_TS_DEWT_082010.nc | 28-Oct-2024 02:47 | 587319 | ||
| YGNN6_TS_DEWT_082011.nc | 28-Oct-2024 02:47 | 587312 | ||
| YGNN6_TS_DEWT_082012.nc | 28-Oct-2024 02:47 | 430357 | ||
| YGNN6_TS_DEWT_082013.nc | 28-Oct-2024 02:47 | 436791 | ||
| YGNN6_TS_DEWT_082014.nc | 28-Oct-2024 02:47 | 440142 | ||
| YGNN6_TS_DEWT_082015.nc | 28-Oct-2024 02:47 | 588026 | ||
| YGNN6_TS_DEWT_082016.nc | 28-Oct-2024 02:47 | 439657 | ||
| YGNN6_TS_DEWT_082017.nc | 28-Oct-2024 02:47 | 439206 | ||
| YGNN6_TS_DEWT_082018.nc | 28-Oct-2024 02:47 | 587779 | ||
| YGNN6_TS_DEWT_082022.nc | 28-Oct-2024 02:47 | 587998 | ||
| YGNN6_TS_DEWT_082023.nc | 28-Oct-2024 02:48 | 587816 | ||
| YGNN6_TS_DEWT_092007.nc | 28-Oct-2024 02:48 | 421782 | ||
| YGNN6_TS_DEWT_092008.nc | 28-Oct-2024 02:48 | 438293 | ||
| YGNN6_TS_DEWT_092009.nc | 28-Oct-2024 02:48 | 438603 | ||
| YGNN6_TS_DEWT_092010.nc | 28-Oct-2024 02:48 | 438860 | ||
| YGNN6_TS_DEWT_092011.nc | 28-Oct-2024 02:48 | 438466 | ||
| YGNN6_TS_DEWT_092012.nc | 28-Oct-2024 02:48 | 438558 | ||
| YGNN6_TS_DEWT_092013.nc | 28-Oct-2024 02:48 | 438512 | ||
| YGNN6_TS_DEWT_092014.nc | 28-Oct-2024 02:48 | 423615 | ||
| YGNN6_TS_DEWT_092015.nc | 28-Oct-2024 02:48 | 438400 | ||
| YGNN6_TS_DEWT_092016.nc | 28-Oct-2024 02:48 | 433049 | ||
| YGNN6_TS_DEWT_092017.nc | 28-Oct-2024 02:48 | 440320 | ||
| YGNN6_TS_DEWT_092018.nc | 28-Oct-2024 02:48 | 434247 | ||
| YGNN6_TS_DEWT_092023.nc | 28-Oct-2024 02:48 | 440230 | ||
| YGNN6_TS_DEWT_102007.nc | 28-Oct-2024 02:48 | 440190 | ||
| YGNN6_TS_DEWT_102008.nc | 28-Oct-2024 02:49 | 439972 | ||
| YGNN6_TS_DEWT_102009.nc | 28-Oct-2024 02:49 | 588043 | ||
| YGNN6_TS_DEWT_102010.nc | 28-Oct-2024 02:49 | 439871 | ||
| YGNN6_TS_DEWT_102011.nc | 28-Oct-2024 02:49 | 587902 | ||
| YGNN6_TS_DEWT_102012.nc | 28-Oct-2024 02:49 | 440121 | ||
| YGNN6_TS_DEWT_102013.nc | 28-Oct-2024 02:49 | 418974 | ||
| YGNN6_TS_DEWT_102014.nc | 28-Oct-2024 02:49 | 422043 | ||
| YGNN6_TS_DEWT_102015.nc | 28-Oct-2024 02:49 | 439665 | ||
| YGNN6_TS_DEWT_102016.nc | 28-Oct-2024 02:49 | 439938 | ||
| YGNN6_TS_DEWT_102017.nc | 28-Oct-2024 02:49 | 439477 | ||
| YGNN6_TS_DEWT_102018.nc | 28-Oct-2024 02:49 | 438716 | ||
| YGNN6_TS_DEWT_102023.nc | 28-Oct-2024 02:49 | 440060 | ||
| YGNN6_TS_DEWT_112007.nc | 28-Oct-2024 02:49 | 440092 | ||
| YGNN6_TS_DEWT_112008.nc | 28-Oct-2024 02:49 | 419413 | ||
| YGNN6_TS_DEWT_112009.nc | 28-Oct-2024 02:49 | 429860 | ||
| YGNN6_TS_DEWT_112010.nc | 28-Oct-2024 02:49 | 432751 | ||
| YGNN6_TS_DEWT_112011.nc | 28-Oct-2024 02:50 | 588013 | ||
| YGNN6_TS_DEWT_112012.nc | 28-Oct-2024 02:50 | 439434 | ||
| YGNN6_TS_DEWT_112013.nc | 28-Oct-2024 02:50 | 587835 | ||
| YGNN6_TS_DEWT_112014.nc | 28-Oct-2024 02:50 | 440069 | ||
| YGNN6_TS_DEWT_112015.nc | 28-Oct-2024 02:50 | 587902 | ||
| YGNN6_TS_DEWT_112016.nc | 28-Oct-2024 02:50 | 421079 | ||
| YGNN6_TS_DEWT_112017.nc | 28-Oct-2024 02:50 | 439634 | ||
| YGNN6_TS_DEWT_112018.nc | 28-Oct-2024 02:50 | 439438 | ||
| YGNN6_TS_DEWT_112023.nc | 28-Oct-2024 02:50 | 439990 | ||
| YGNN6_TS_DEWT_122007.nc | 28-Oct-2024 02:50 | 439628 | ||
| YGNN6_TS_DEWT_122008.nc | 28-Oct-2024 02:50 | 439935 | ||
| YGNN6_TS_DEWT_122009.nc | 28-Oct-2024 02:50 | 431254 | ||
| YGNN6_TS_DEWT_122010.nc | 28-Oct-2024 02:50 | 439772 | ||
| YGNN6_TS_DEWT_122011.nc | 28-Oct-2024 02:50 | 429756 | ||
| YGNN6_TS_DEWT_122012.nc | 28-Oct-2024 02:51 | 588130 | ||
| YGNN6_TS_DEWT_122013.nc | 28-Oct-2024 02:51 | 435462 | ||
| YGNN6_TS_DEWT_122014.nc | 28-Oct-2024 02:51 | 439814 | ||
| YGNN6_TS_DEWT_122015.nc | 28-Oct-2024 02:51 | 588086 | ||
| YGNN6_TS_DEWT_122016.nc | 28-Oct-2024 02:51 | 440187 | ||
| YGNN6_TS_DEWT_122017.nc | 28-Oct-2024 02:51 | 420842 | ||
| YGNN6_TS_DEWT_122018.nc | 28-Oct-2024 02:51 | 588061 | ||
| YGNN6_TS_DEWT_122023.nc | 28-Oct-2024 02:51 | 440376 | ||